Flag for U.S.A. Weather past 2 weeks in Cupertino, California, U.S.A.

Now
57 °F

Clear.


Feels Like: 57 °F
Forecast: 49 / 79 °F
Wind: No wind

Location: Moffett Field


UV Index: 7 (High)

Visibility: 10 mi


Pressure: 30.14 "Hg

Humidity: 81%

Dew point: 51 °F

Location of CupertinoLocation

Historic Weather in Cupertino

°F

Cupertino temperature yesterday

Maximum temperature yesterday: 69 °F (at 3:56 PM)
Minimum temperature yesterday: 50 °F (at 6:56 AM)
Average temperature yesterday: 59 °F

Past Weeks' High & Low Weather Summary

 TemperatureHumidityPressure
High81 °F (Apr 8, 1:56 PM)87% (Apr 9, 3:56 AM)30.25 "Hg (Apr 9, 3:56 AM)
Low48 °F (Apr 6, 5:56 AM)29% (Apr 10, 3:56 PM)29.82 "Hg (Apr 17, 5:56 AM)
Average61 °F68%30.02 "Hg
* Reported Apr 5 12:56 AM — Apr 20 12:56 AM, Cupertino, Weather by CustomWeather, © 2014

Note: Actual official high and low records may vary slightly from our data, if they occured in-between our weather recording intervals... More about our weather records

Advertising

Historic Weather Conditions — Data for Previous 24 hours

 ConditionsComfort  
Time TempWeatherWind HumidityBarometerVisibility
12:56 AM
Apr 20
57 °FClear.No wind81%30.14 "Hg10 mi
11:56 PM
Apr 19
55 °FPassing clouds.5 mph87%30.14 "Hg10 mi
10:56 PM57 °FPassing clouds.No wind81%30.15 "Hg10 mi
9:56 PM57 °FClear.No wind81%30.15 "Hg10 mi
8:56 PM58 °FClear.7 mph78%30.15 "Hg10 mi
7:56 PM59 °FSunny.6 mph75%30.12 "Hg10 mi
6:56 PM63 °FSunny.9 mph63%30.12 "Hg10 mi
5:56 PM65 °FSunny.12 mph59%30.12 "Hg10 mi
4:56 PM68 °FSunny.18 mph55%30.11 "Hg10 mi
3:56 PM69 °FSunny.16 mph53%30.11 "Hg10 mi
2:56 PM67 °FSunny.22 mph53%30.11 "Hg10 mi
1:56 PM66 °FSunny.13 mph49%30.11 "Hg10 mi
12:56 PM67 °FSunny.9 mph47%30.11 "Hg10 mi
11:56 AM64 °FSunny.5 mph50%30.11 "Hg10 mi
10:56 AM62 °FSunny.8 mph54%30.11 "Hg10 mi
9:56 AM60 °FSunny.3 mph53%30.09 "Hg10 mi
8:56 AM56 °FSunny.6 mph70%30.08 "Hg10 mi
7:56 AM53 °FSunny.No wind77%30.08 "Hg10 mi
6:56 AM50 °FClear.3 mph80%30.05 "Hg10 mi
5:56 AM51 °FClear.No wind74%30.03 "Hg10 mi
4:56 AM51 °FClear.No wind77%30.02 "Hg10 mi
3:56 AM52 °FClear.3 mph75%30.01 "Hg10 mi
2:56 AM52 °FClear.No wind77%29.99 "Hg10 mi
Weather by CustomWeather, © 2014

See weather overview